Location: Unspecified
(0.0000°N, 0.0000°E)
Time: 23:17:33
(UTC+00:00)

deb Blok Kosmos - Pass Details

Date: 11 December 2025
Orbit: 1262 x 1713 km, 55.4° (Epoch: 19 January)

Event Time Altitude Azimuth Distance (km) Brightness Sun altitude
Rises 18:20:08 0° 171° (S) 4,461 ? -6.1°
Reaches altitude 10° 18:26:27 10° 137° (SE) 3,610 ? -7.6°
Maximum altitude 18:28:34 11° 123° (ESE) 3,577 ? -8.1°
Drops below altitude 10° 18:30:45 10° 109° (ESE) 3,694 ? -8.6°
Enters shadow 18:33:47 - 91° (E) 4,084 ? -9.3°
